Regional Weather Roundup
Issued by NWS

Home | Current Version | Previous Version | Text Only | Print | Product List | Glossary Off
Versions: 1 2 3 4 5 6 7 8 9 10 11 12 13 14 15 16 17 18 19 20 21 22 23 24 25 26 27 28 29 30 31 32 33 34 35 36 37 38 39 40 41 42 43 44 45 46 47 48 49 50

000
ASUS43 KMKX 210400
RWRWI

WISCONSIN REGIONAL WEATHER ROUNDUP
NATIONAL WEATHER SERVICE MILWAUKEE/SULLIVAN WI
1100 PM CDT SAT SEP 20 2014

NOTE: "FAIR" INDICATES FEW OR NO CLOUDS BELOW 12,000 FEET WITH NO
SIGNIFICANT WEATHER AND/OR OBSTRUCTIONS TO VISIBILITY.

WIZ001-002-006>008-014>016-023>028-210500-
NORTHWEST WISCONSIN

CITY           SKY/WX    TMP DP  RH WIND       PRES   REMARKS
SUPERIOR ARPT  LGT RAIN  54  54  98 CALM      29.71S
ASHLAND        CLOUDY    54  52  93 SW7       29.70F
HAYWARD        LGT RAIN  55  54  96 VRB5      29.72S
SIREN          CLOUDY    55  52  90 W8        29.76S
RICE LAKE      RAIN      56  52  86 W9        29.77F
LADYSMITH      CLOUDY    55  54  94 W5        29.76S
EAU CLAIRE     CLEAR     56  52  86 W8        29.78S
MENOMONIE      CLEAR     57  53  85 W10       29.80F
NEW RICHMOND   CLEAR     54  52  94 W9        29.81F
OSCEOLA        CLEAR     55  52  90 W10       29.83S
$$

WIZ003>005-009-010-017-018-210500-
NORTH CENTRAL WISCONSIN

CITY           SKY/WX    TMP DP  RH WIND       PRES   REMARKS
WOODRUFF       RAIN      57  53  87 W5        29.72R
RHINELANDER    RAIN      53  52  96 W10       29.73R FOG
EAGLE RIVER    CLOUDY    53  53  99 CALM      29.69S
LAND O LAKES   CLOUDY    53  52  95 CALM      29.71S
PHILLIPS       CLOUDY    53  52  97 CALM      29.71F
TOMAHAWK       RAIN      52  50  93 N5        29.72F
MEDFORD        MOCLDY    53  52  97 W5        29.74S
MERRILL        TSTM      54  54  98 N5        29.71F
$$

WIZ029-030-035-036-043>047-210500-
CENTRAL WISCONSIN

CITY           SKY/WX    TMP DP  RH WIND       PRES   REMARKS
WAUSAU         CLOUDY    56  54  93 NW7       29.71R
MOSINEE        CLOUDY    54  54 100 W6        29.74R
MARSHFIELD     PTCLDY    56  53  90 W9        29.75R
STEVENS POINT  CLOUDY    55  53  94 CALM      29.72F
WAUPACA        HVY RAIN  62  57  85 W24G33    29.74R
WAUTOMA        LGT RAIN  61  57  88 NW8       29.72F
WISC RAPIDS    CLOUDY    56  55  97 W7        29.76R
CAMP DOUGLAS   NOT AVBL
$$

WIZ011>013-019>022-031-037>040-048>050-210500-
NORTHEAST WISCONSIN

CITY           SKY/WX    TMP DP  RH WIND       PRES   REMARKS
ANTIGO         RAIN      57  51  82 W17G35    29.74R
STURGEON BAY   CLOUDY    61  57  88 NE13      29.67S
GREEN BAY      CLOUDY    63  58  83 W3        29.66F
MANITOWOC      NOT AVBL
APPLETON       MOCLDY    63  55  77 W6        29.69F
CLINTONVILLE   HVY RAIN  61  55  82 W24G37    29.73R
OSHKOSH        TSTM      65  59  81 W25G38    29.71R
$$

WIZ032>034-041-042-053>061-210500-
SOUTHWEST WISCONSIN

CITY           SKY/WX    TMP DP  RH WIND       PRES   REMARKS
LA CROSSE      MOCLDY    62  55  77 NW18G31   29.81R
SPARTA         MOCLDY    61  55  82 W10G20    29.79R
VIROQUA        MOCLDY    59  59 100 W12       29.81R
BOSCOBEL       CLOUDY    63  60  90 SW7       29.80R
PRAIRIE DU CHI MOCLDY    61  59  96 W5        29.81R
PLATTEVILLE    CLOUDY    62  61  95 CALM      29.78F
$$

WIZ056-057-062-063-064-067-068-210500-
SOUTH CENTRAL WISCONSIN

CITY           SKY/WX    TMP DP  RH WIND       PRES   REMARKS
BARABOO/DELLS  CLOUDY    60  57  91 SW5       29.73F
LONE ROCK      NOT AVBL
WATERTOWN      CLOUDY    65  64  98 CALM      29.70F
MADISON        CLOUDY    63  59  87 CALM      29.72S
MIDDLETON      CLOUDY    63  61  93 SW6       29.73F
MONROE         LGT RAIN  66  63  88 NW24G32   29.79R
JANESVILLE     RAIN      68  64  88 W12       29.73R
$$

WIZ051-052-058>065-066-070>072-210500-
SOUTHEAST WISCONSIN

CITY           SKY/WX    TMP DP  RH WIND       PRES   REMARKS
MILWAUKEE      MOCLDY    67  63  87 SW7       29.70F
WAUKESHA       MOCLDY    64  61  88 S7        29.71F
MILWAUKEE/TIMM PTCLDY    66  61  82 SW5       29.71F
RACINE         PTCLDY    67  63  87 SW6       29.72F
BURLINGTON     PTCLDY    61  60  98 S6        29.71F
KENOSHA        PTCLDY    67  64  90 SW7       29.72F
FOND DU LAC    LGT RAIN  65  61  87 SW7       29.69F
SHEBOYGAN      MOCLDY    64  61  90 MISG      29.68F
WEST BEND      CLOUDY    63  57  82 CALM      29.70F
JUNEAU         CLOUDY    63  60  90 CALM      29.71F
$$

LSZ147-162-210500-
LAKE SUPERIOR

STATION/POSITION TIME  TEMP    WIND        PRES    WAVE
                       AIR SEA DIR/SP/G            HT/PER
                 (UTC) (F)     (DEG/KT/KT) (MB)    (FT/S)
W MID LAKE BUOY  0250   50 46   50/  8/ 10 1005.4F   1/ 4
DEVILS ISLAND    0300   54      50/  8/  8 1005.3F
PORT WING        0300   55     250/  5/ 10 1006.1S
SAXON HARBOR     0300   59     220/  4/  6 1005.4F
$$

LMZ867-665-643>646-210500-
LAKE MICHIGAN

STATION/POSITION TIME  TEMP    WIND        PRES    WAVE
                       AIR SEA DIR/SP/G            HT/PER
                 (UTC) (F)     (DEG/KT/KT) (MB)    (FT/S)
N MID LAKE BUOY  0250   59 58   30/ 12/ 14 1004.8F   3/ 6
NORTHPORT PIER   0300   61      30/  8/ 17 1005.1S
SISTER BAY       0242           80/  9/ 19   N/A
ALGOMA LAKESHORE 0254             CALM       N/A
KEWAUNEE LAKESHO 0300   66     270/  4/  6 1003.9F
SHEBOYGAN LAKESH 0300   67 54  240/  9/ 10 1005.6F
PORT WASHINGTON  0300   67     240/  4/  6 1006.4
ATWATER BUOY     0300   60     180/  6/  8 1007.4F
MILWAUKEE LAKESH 0300   69     210/  8/ 10   N/A
S MID LAKE BUOY  0250   66 63  210/ 14/ 16 1006.8F   1/ 3
KENOSHA   LAKESH 0300   69     220/  9/ 15 1006.8F
$$

TC  - TEMPERATURE IN CELSIUS
VSB - VISIBILITY IN STATUTE MILES
WCI - WIND CHILL INDEX
HX  - HEAT INDEX




USA.gov is the U.S. government's official web portal to all federal, state and local government web resources and services.